Hourly Data Report for June 18, 2021

SANIRAJAK AIRPORT
NUNAVUT
Current Station Operator: NAVCAN

68°46'33.000" N
81°14'33.000" W
9.10 m
2402354
71293
YUX

Download Data

Hourly Data (June 2021)
Hourly Data Report for June 18, 2021
TIME
LST
Temp Definition
°C
Dew Point Definition
°C
Rel Hum Definition
%
Precip. Amount Definition
mm

Wind Dir Definition
10's deg

Wind Spd Definition
km/h
Visibility Definition
km
Stn Press Definition
kPa
Hmdx Definition


Wind Chill Definition


Weather Definition


00:00 -0.2 -0.2 100 0.0 8 13 1.6 99.82   -4 Snow
01:00 -0.8 -0.8 100 0.0 10 18 1.0 99.83   -6 Fog
02:00 -0.9 -0.9 100 0.0 10 11 4.8 99.86   -5 Fog
03:00 -0.4 -0.4 100 0.0 6 11 1.2 99.88   -4 Fog
04:00 -0.1 -0.1 100 0.0 8 11 16.1 99.90   -4 LegendNANA
05:00 0.1 0.1 100 0.0 7 15 2.0 99.89     Fog
06:00 0.2 0.2 100 0.0 8 17 0.8 99.90     Fog
07:00 0.5 0.5 100 0.0 10 15 16.1 99.92     LegendNANA
08:00 0.5 0.5 100 0.0 9 13 0.8 99.94     Fog
09:00 0.6 0.6 100 0.0 10 13 16.1 99.97     LegendNANA
10:00 1.3 0.9 97 0.0 12 17 16.1 99.98     LegendNANA
11:00 1.0 0.6 97 0.0 10 17 16.1 100.02     LegendNANA
12:00 1.1 0.8 98 0.0 9 13 16.1 100.05     LegendNANA
13:00 1.4 0.7 95 0.0 11 18 16.1 100.09     LegendNANA
14:00 1.4 0.5 94 0.0 10 18 16.1 100.12     LegendNANA
15:00 1.0 0.3 95 0.0 11 21 16.1 100.14     LegendNANA
16:00 1.3 0.3 93 0.0 9 15 14.5 100.16     LegendNANA
17:00 1.3 0.4 94 0.0 9 18 16.1 100.20     LegendNANA
18:00 1.3 0.4 94 0.0 10 17 16.1 100.21     LegendNANA
19:00 1.1 0.4 95 0.0 9 18 16.1 100.24     LegendNANA
20:00 1.0 0.3 95 0.0 10 18 16.1 100.26     LegendNANA
21:00 0.9 0.3 96 0.0 10 17 16.1 100.29     LegendNANA
22:00 0.5 0.1 97 0.0 10 15 16.1 100.31     LegendNANA
23:00 0.6 0.2 97 0.0 10 18 16.1 100.32     LegendNANA

Notes on Data Quality.

Legend

  • E = Estimated
  • M = Missing
  • NA = Not Available*
  • [empty] = Indicates an unobserved value
Date modified: